FW9092 Weather Reports


Display with metric or nautical units.
time (UTC)temp
F
wind
direction
speed
MPH
gust
MPH
rain 1hr
in
rain 24hr
in
rain mn
in
humidity
%
barometer
mb
20260508014503 69 26 0.0 0.0 0.00 0.00 0.00 84 981.7
20260508013003 69 26 0.0 0.0 0.00 0.00 0.00 84 981.6
20260508011505 70 26 0.0 0.0 0.00 0.00 0.00 84 981.3
20260508010011 70 26 0.0 0.0 0.00 0.00 0.00 84 981.3
20260508004503 70 26 0.0 0.0 0.00 0.00 0.00 84 981.2
20260508003004 70 26 0.0 0.0 0.00 0.00 0.00 84 981.1
20260508001502 70 26 0.0 0.0 0.00 0.00 0.00 83 981.0
20260508000005 70 26 0.0 0.0 0.00 0.00 0.00 82 980.9
20260507234504 70 26 0.0 0.0 0.00 0.00 0.00 82 980.8
20260507233004 71 26 0.0 0.0 0.00 0.00 0.00 81 980.6
20260507231504 72 26 0.0 0.0 0.00 0.00 0.00 79 980.5
20260507230006 72 26 0.0 0.0 0.00 0.00 0.00 78 980.3
20260507224504 73 26 0.0 0.0 0.00 0.00 0.00 77 980.0
20260507223004 73 26 0.0 0.0 0.00 0.00 0.00 77 980.0
20260507221507 74 26 0.0 0.0 0.00 0.00 0.00 76 980.1
20260507220004 74 26 0.0 0.0 0.00 0.00 0.00 75 980.3
20260507214503 75 26 0.0 0.0 0.00 0.00 0.00 74 980.1
20260507213002 77 26 0.0 0.0 0.00 0.00 0.00 72 980.1
20260507211502 78 26 0.0 0.0 0.00 0.00 0.00 70 980.1
20260507210023 79 26 0.0 0.0 0.00 0.00 0.00 69 980.0
20260507204502 80 26 0.0 0.0 0.00 0.00 0.00 68 980.0
20260507203004 80 26 0.0 0.0 0.00 0.00 0.00 67 979.9
20260507201505 81 26 0.0 0.0 0.00 0.00 0.00 66 980.0
20260507200006 83 26 0.0 0.0 0.00 0.00 0.00 64 980.0
20260507194503 84 26 0.0 0.0 0.00 0.00 0.00 63 980.3
20260507193004 84 26 0.0 0.0 0.00 0.00 0.00 63 980.5
20260507191502 84 26 0.0 0.0 0.00 0.00 0.00 63 980.6
20260507190006 83 26 0.0 0.0 0.00 0.00 0.00 63 980.8
20260507184505 84 26 0.0 0.0 0.00 0.00 0.00 63 980.9
20260507183002 83 26 0.0 0.0 0.00 0.00 0.00 64 981.0
20260507181503 83 26 0.0 0.0 0.00 0.00 0.00 65 981.3
20260507180006 82 26 0.0 0.0 0.00 0.00 0.00 66 981.4
20260507174506 81 26 0.0 0.0 0.00 0.00 0.00 66 982.0
20260507173002 80 26 0.0 0.0 0.00 0.00 0.00 68 982.2
20260507171502 79 26 0.0 0.0 0.00 0.00 0.00 70 982.3
20260507170005 78 26 0.0 0.0 0.00 0.00 0.00 71 982.6
20260507164503 77 26 0.0 0.0 0.00 0.00 0.00 72 982.9
20260507163003 75 26 0.0 0.0 0.00 0.00 0.00 76 983.0
20260507161502 74 26 0.0 0.0 0.00 0.00 0.00 78 983.3
20260507160005 73 26 0.0 0.0 0.00 0.00 0.00 78 983.5
20260507154502 72 26 0.0 0.0 0.00 0.00 0.00 80 983.4
20260507153004 71 26 0.0 0.0 0.00 0.00 0.00 81 983.6
20260507151502 71 26 0.0 0.0 0.00 0.00 0.00 82 983.7
20260507150006 70 26 0.0 0.0 0.00 0.00 0.00 83 983.8
20260507144502 70 26 0.0 0.0 0.00 0.00 0.00 84 983.9
20260507143004 69 26 0.0 0.0 0.00 0.00 0.00 84 984.0
20260507141501 69 26 0.0 0.0 0.00 0.00 0.00 84 983.8
20260507140009 69 26 0.0 0.0 0.00 0.00 0.00 83 983.5
20260507134503 69 26 0.0 0.0 0.00 0.00 0.00 84 983.3
20260507133002 69 26 0.0 0.0 0.00 0.00 0.00 84 983.0
20260507131502 69 26 0.0 0.0 0.00 0.00 0.00 86 982.7
20260507130008 68 26 0.0 0.0 0.00 0.00 0.00 86 982.6
20260507124501 68 26 0.0 0.0 0.00 0.00 0.00 86 982.7
20260507123002 68 26 0.0 0.0 0.00 0.00 0.00 87 982.6
20260507121502 68 26 0.0 0.0 0.00 0.00 0.00 87 982.4
20260507120005 68 26 0.0 0.0 0.00 0.00 0.00 87 982.4
20260507114502 67 26 0.0 0.0 0.00 0.00 0.00 87 982.4
20260507113002 67 26 0.0 0.0 0.00 0.00 0.00 87 982.4
20260507111503 67 26 0.0 0.0 0.00 0.00 0.00 87 982.3
20260507110004 67 26 0.0 0.0 0.00 0.00 0.00 87 982.0
20260507104503 67 26 0.0 0.0 0.00 0.00 0.00 87 982.1
20260507103001 67 26 0.0 0.0 0.00 0.00 0.00 88 981.9
20260507101502 67 26 0.0 0.0 0.00 0.00 0.00 88 981.8
20260507100004 67 26 0.0 0.0 0.00 0.00 0.00 88 981.7
20260507094501 67 26 0.0 0.0 0.00 0.00 0.00 87 981.7
20260507093001 67 26 0.0 0.0 0.00 0.00 0.00 88 981.6
20260507091501 67 26 0.0 0.0 0.00 0.00 0.00 88 981.4
20260507090004 67 26 0.0 0.0 0.00 0.00 0.00 88 981.4
20260507084500 67 26 0.0 0.0 0.00 0.00 0.00 88 981.4
20260507083001 67 26 0.0 0.0 0.00 0.00 0.00 88 981.5
20260507081501 67 26 0.0 0.0 0.00 0.00 0.00 87 981.5
20260507080004 67 26 0.0 0.0 0.00 0.00 0.00 87 981.6
20260507074500 67 26 0.0 0.0 0.00 0.00 0.00 87 981.7
20260507073001 67 26 0.0 0.0 0.00 0.00 0.00 86 981.7
20260507071501 67 26 0.0 0.0 0.00 0.00 0.00 86 982.0
20260507070009 67 26 0.0 0.0 0.00 0.00 0.00 85 981.7
20260507064500 68 26 0.0 0.0 0.00 0.00 0.00 85 981.8
20260507063000 68 26 0.0 0.0 0.00 0.00 0.00 85 982.0
20260507061502 68 26 0.0 0.0 0.00 0.00 0.00 85 982.2
20260507060005 68 26 0.0 0.0 0.00 0.00 0.00 85 982.3
20260507054509 68 26 0.0 0.0 0.00 0.00 0.00 86 982.4
20260507053004 68 26 0.0 0.0 0.00 0.00 0.00 86 982.5
20260507051504 68 26 0.0 0.0 0.00 0.00 0.00 86 982.7
20260507050012 68 26 0.0 0.0 0.00 0.00 0.00 85 983.0
20260507044505 68 26 0.0 0.0 0.00 0.00 0.00 85 983.2
20260507043009 68 26 0.0 0.0 0.00 0.00 0.00 85 983.4
20260507041503 68 26 0.0 0.0 0.00 0.00 0.00 86 983.3
20260507040005 68 26 0.0 0.0 0.00 0.00 0.00 86 983.3
20260507034507 68 26 0.0 0.0 0.00 0.00 0.00 85 983.5
20260507033010 68 26 0.0 0.0 0.00 0.00 0.00 85 983.5
20260507031502 68 26 0.0 0.0 0.00 0.00 0.00 85 983.4
20260507030004 68 26 0.0 0.0 0.00 0.00 0.00 84 983.4
20260507024503 69 26 0.0 0.0 0.00 0.00 0.00 83 983.4
20260507023006 69 26 0.0 0.0 0.00 0.00 0.00 83 983.3
20260507021502 69 26 0.0 0.0 0.00 0.00 0.00 83 983.2
20260507020007 69 26 0.0 0.0 0.00 0.00 0.00 83 983.1